Wind_Speed
3 3 4 6 6 7 7 7 8 8 8 9 9 9 9 9 9 9 10 10 10 10 10 11 12 12 13 13 13 13 13 14 13 13 12 11 10 9 8 7 6 6 5
3 4 5 6 6 7 8 8 8 8 9 9 9 9 9 9 9 10 10 11 11 11 11 11 12 12 13 13 14 13 13 14 14 13 13 12 11 10 9 8 7 6 5
3 4 6 6 7 8 8 8 8 8 9 9 9 9 9 10 10 10 10 11 11 11 11 11 12 13 13 14 14 14 13 14 14 14 13 13 12 11 9 9 8 7 6
4 5 6 6 6 7 8 8 8 8 9 9 9 9 10 10 10 10 11 11 11 12 12 12 12 12 13 13 14 14 14 14 14 14 14 14 13 12 11 10 9 7 7
4 5 6 6 7 7 8 8 8 8 8 8 9 9 9 10 11 11 11 11 12 12 12 13 13 13 13 13 14 14 14 13 14 14 14 14 13 12 11 10 9 8 7
4 5 6 6 7 7 7 7 7 7 8 8 9 10 10 10 11 11 11 11 12 12 13 13 13 13 13 14 14 14 14 14 14 14 14 14 13 12 12 11 10 8 7
4 6 6 6 7 7 7 7 7 7 8 8 9 10 10 11 11 11 12 12 12 13 13 13 13 13 13 13 14 14 14 14 14 14 14 14 13 13 12 11 10 9 8
5 5 6 6 7 7 7 7 7 7 8 9 10 10 11 11 11 12 12 12 12 12 13 13 13 13 13 13 13 13 13 13 13 14 15 14 14 13 12 12 10 9 8
4 5 6 6 6 7 7 7 7 8 8 9 10 10 11 11 12 12 12 12 12 13 13 13 13 13 13 12 12 12 12 13 12 13 15 15 14 14 13 13 11 9 8
5 6 6 6 6 6 7 7 7 8 9 9 10 10 11 12 13 13 13 13 13 13 13 13 13 13 13 13 13 12 12 13 12 13 14 15 14 14 14 13 12 10 9
4 5 6 6 6 6 6 7 7 8 9 10 10 11 12 13 13 13 13 13 13 13 13 13 13 13 13 13 13 13 13 13 13 13 14 15 15 14 14 13 13 12 10
4 4 5 6 6 6 6 7 8 8 9 10 10 11 12 13 13 14 14 13 13 13 13 14 14 14 13 13 13 13 13 13 13 13 14 15 15 15 14 14 14 13 12
3 4 4 4 5 5 6 6 7 8 9 10 11 11 12 13 13 14 14 13 13 13 14 14 14 14 14 13 13 14 13 13 14 14 15 16 17 16 15 14 14 14 13
4 4 4 4 4 4 5 6 7 8 9 9 10 11 12 13 13 14 14 14 14 14 14 15 15 14 14 14 14 14 14 13 14 15 15 16 17 17 15 15 15 15 14
4 3 3 3 3 4 5 6 7 8 9 10 10 12 13 14 14 14 14 15 15 15 15 15 15 14 14 14 13 13 14 13 14 15 16 16 17 17 17 16 16 15 15
3 2 3 4 4 4 5 6 7 8 9 10 11 12 13 14 15 15 15 15 15 15 15 16 15 14 13 12 12 12 12 13 14 14 16 17 17 18 18 17 18 17 16
2 2 3 3 3 4 5 6 7 8 9 10 11 12 13 14 15 15 15 16 17 16 16 16 14 14 12 11 10 10 10 12 12 14 16 17 18 19 19 19 18 18 17
1 2 2 3 3 4 6 7 7 8 9 10 11 12 13 14 15 16 16 17 17 17 17 16 14 13 11 10 9 9 9 11 12 13 15 16 18 19 20 20 19 19 18
1 2 3 3 4 5 7 8 8 9 9 11 12 12 13 14 15 16 17 18 18 18 18 16 14 12 11 9 8 8 8 9 11 12 14 16 17 19 20 20 20 20 20
2 2 3 4 5 6 7 8 9 9 10 11 12 13 14 15 16 17 18 18 19 18 17 16 14 12 10 9 7 6 6 7 8 10 13 15 16 18 20 20 20 20 21
3 3 4 4 5 5 6 7 8 9 10 11 12 13 14 15 16 18 18 19 19 18 17 16 14 12 10 9 7 5 4 5 6 9 11 14 16 17 19 20 21 21 21
3 3 4 4 4 5 6 7 8 9 11 12 13 14 14 15 16 18 19 19 18 18 17 16 15 13 11 9 7 5 3 3 5 7 10 12 15 17 18 20 21 21 22
3 4 4 4 5 5 6 7 8 10 11 12 13 14 15 16 16 17 19 19 18 18 17 17 16 14 11 9 7 5 3 2 2 5 8 11 13 15 17 20 20 21 22
3 3 4 4 5 6 6 7 9 10 11 12 13 14 15 16 17 18 18 19 19 18 18 17 16 14 12 9 7 5 3 2 1 4 6 9 11 14 16 19 20 20 22
3 3 3 3 4 5 7 8 9 10 11 12 13 14 16 16 17 18 19 19 19 19 19 18 17 14 12 10 8 6 5 3 0 3 6 8 10 13 14 17 19 20 21
3 3 3 3 4 5 6 8 9 10 11 12 13 14 16 16 17 17 18 18 18 18 19 18 17 15 13 11 9 7 5 3 1 2 4 6 9 11 14 16 18 19 21
Wind_Direction
347 359 351 344 341 341 338 335 334 329 325 324 325 323 322 322 319 317 312 310 304 298 294 289 284 278 273 269 267 264 261 259 258 256 253 252 253 254 256 258 262 267 267
353 348 341 340 337 336 334 329 328 326 323 322 323 322 322 322 318 316 313 312 308 302 297 291 285 282 277 272 268 267 264 259 256 253 251 249 249 251 253 256 260 264 270
349 341 338 338 334 334 333 330 327 325 324 323 322 323 323 321 318 316 312 310 307 305 301 295 288 284 280 275 270 267 266 261 255 252 251 247 245 248 251 255 257 260 267
339 338 335 336 332 331 330 328 327 327 325 323 322 323 322 322 320 317 313 310 306 305 301 296 291 287 283 278 272 267 265 258 253 251 249 246 245 248 248 250 252 255 261
333 336 334 333 330 328 329 327 325 325 325 324 324 323 322 320 318 316 312 309 305 303 301 297 292 288 285 280 274 268 264 258 251 251 248 244 244 245 245 246 248 249 252
334 335 334 329 326 326 328 326 325 323 323 325 325 324 321 319 318 316 315 312 309 305 302 300 294 290 286 282 275 270 265 259 252 250 248 242 240 241 241 241 243 243 246
333 333 335 331 328 327 326 326 324 322 324 325 325 324 322 321 319 317 316 314 311 307 305 302 298 293 289 285 278 271 266 261 253 247 245 240 238 237 235 235 237 238 241
328 331 332 328 328 327 322 322 321 322 325 326 326 327 326 325 323 321 319 317 314 311 308 303 298 294 291 288 281 274 267 261 254 245 241 239 236 235 231 230 233 235 234
325 329 324 326 328 326 324 324 323 325 327 327 328 330 330 328 326 324 321 319 317 313 310 306 301 297 292 288 282 274 267 262 255 246 240 237 235 233 230 228 230 229 229
322 326 326 329 327 325 324 326 327 328 328 329 330 331 332 331 328 326 323 320 318 315 312 309 304 300 294 288 282 274 266 260 254 246 239 236 233 231 231 227 226 225 223
324 326 325 326 326 326 324 326 328 329 330 333 334 335 336 334 332 330 326 322 318 316 314 312 308 302 296 288 281 273 265 260 252 246 239 235 230 229 230 225 222 222 218
329 327 326 323 322 321 320 322 325 330 335 337 338 338 338 338 337 335 331 327 322 318 315 313 310 303 296 289 281 274 268 260 252 245 239 233 228 226 226 223 219 218 215
327 328 327 318 316 316 319 324 327 334 338 340 341 341 342 342 341 339 335 331 326 322 319 317 313 306 298 290 282 274 269 262 252 244 239 231 227 225 223 221 217 214 214
322 326 324 320 321 321 322 327 331 336 339 341 341 342 344 346 346 344 341 337 333 328 323 320 316 308 301 292 283 274 267 260 249 242 238 231 227 224 220 217 213 212 213
325 323 329 331 329 333 336 340 340 340 341 341 343 346 351 352 352 350 347 344 338 334 328 322 318 312 304 295 284 275 264 257 247 242 236 230 224 221 219 215 212 211 210
335 339 346 348 349 347 346 345 344 344 346 349 351 353 354 356 355 354 353 349 345 340 335 329 322 316 311 300 287 276 263 254 247 241 233 228 222 218 216 214 212 210 208
344 351 349 354 356 355 353 350 349 352 354 354 355 357 358 358 357 357 355 352 349 345 342 337 331 325 319 307 292 278 264 253 248 239 231 224 220 216 214 213 211 208 208
4 359 352 2 8 8 2 357 355 354 356 358 360 1 0 360 360 358 354 353 351 348 345 343 341 335 326 316 302 285 269 256 248 238 228 222 218 214 213 212 209 206 206
25 9 7 15 18 14 6 2 357 355 359 2 1 1 1 1 2 360 357 356 354 350 348 347 347 344 338 327 312 293 276 259 245 234 225 220 216 214 212 211 209 207 205
52 41 33 30 23 16 10 5 0 359 1 2 1 0 1 2 2 360 358 357 355 353 353 352 351 350 345 338 326 305 281 260 240 230 222 217 215 213 211 210 209 208 206
67 56 45 35 28 19 13 10 8 7 5 3 1 0 0 1 1 360 358 357 356 357 358 358 356 353 351 347 339 325 294 261 236 225 218 214 213 212 211 209 209 208 208
77 67 54 42 36 27 20 16 13 10 9 7 5 3 2 1 1 2 360 360 1 2 2 3 3 360 357 355 350 340 320 275 235 219 213 212 211 210 208 207 208 208 206
86 72 63 55 47 36 26 20 16 13 10 9 8 6 5 4 3 4 5 4 5 6 5 3 4 5 3 2 0 355 342 295 237 211 207 207 207 207 206 205 206 207 205
97 85 71 62 49 37 28 22 18 15 13 11 9 6 5 5 6 6 6 6 7 7 8 8 7 6 7 8 9 9 4 339 217 201 203 205 206 206 205 205 206 208 206
110 95 79 68 52 41 33 26 21 17 14 12 10 8 8 7 7 7 8 9 9 10 9 10 11 12 13 13 14 18 19 17 111 190 198 203 207 208 207 206 207 206 206
124 112 97 84 63 49 41 34 26 21 17 14 13 11 9 8 8 8 9 10 11 12 12 12 13 15 17 17 18 21 24 28 53 177 196 204 209 211 210 209 208 207 206
Height
5891 5890 5890 5889 5889 5888 5887 5886 5885 5885 5884 5883 5881 5880 5879 5877 5876 5875 5874 5873 5872 5871 5869 5868 5868 5867 5866 5866 5866 5866 5866 5867 5867 5868 5868 5869 5870 5870 5870 5870 5870 5870 5870
5890 5890 5889 5889 5888 5887 5887 5886 5885 5884 5883 5882 5880 5879 5878 5876 5875 5874 5872 5871 5870 5869 5868 5867 5865 5865 5864 5864 5864 5864 5864 5864 5865 5866 5866 5867 5868 5868 5869 5869 5869 5870 5870
5890 5889 5889 5888 5887 5887 5886 5885 5884 5883 5882 5881 5879 5878 5876 5875 5874 5872 5871 5870 5868 5867 5866 5865 5863 5862 5862 5861 5861 5861 5862 5862 5863 5863 5864 5865 5866 5867 5867 5868 5868 5869 5869
5889 5889 5888 5887 5887 5886 5885 5884 5883 5882 5881 5879 5878 5877 5875 5874 5872 5871 5869 5868 5866 5865 5864 5863 5861 5860 5859 5859 5859 5859 5859 5859 5860 5861 5862 5863 5864 5865 5866 5867 5867 5868 5868
5888 5888 5887 5887 5886 5885 5884 5883 5882 5881 5880 5878 5877 5875 5874 5872 5871 5869 5867 5866 5864 5863 5861 5860 5859 5858 5857 5856 5856 5856 5856 5857 5858 5859 5859 5861 5862 5863 5864 5865 5866 5867 5867
5888 5887 5887 5886 5885 5884 5883 5882 5881 5880 5879 5877 5876 5874 5873 5871 5869 5867 5866 5864 5862 5861 5859 5858 5857 5856 5855 5854 5853 5853 5854 5854 5855 5856 5857 5858 5860 5861 5862 5863 5865 5866 5866
5887 5886 5886 5885 5884 5883 5882 5881 5880 5879 5878 5876 5875 5873 5871 5869 5867 5865 5863 5862 5860 5858 5857 5855 5854 5853 5852 5851 5851 5851 5851 5851 5852 5853 5855 5856 5857 5859 5860 5862 5863 5865 5865
5886 5886 5885 5884 5883 5882 5881 5880 5879 5878 5876 5875 5873 5871 5869 5867 5865 5863 5861 5860 5858 5856 5854 5853 5852 5850 5849 5848 5848 5848 5848 5849 5850 5851 5852 5853 5855 5857 5858 5860 5862 5863 5864
5885 5885 5884 5883 5882 5881 5880 5879 5878 5876 5875 5873 5871 5869 5867 5865 5863 5861 5859 5857 5856 5854 5852 5850 5849 5848 5847 5846 5845 5845 5845 5846 5847 5848 5849 5851 5853 5854 5856 5858 5860 5862 5863
5884 5884 5883 5882 5881 5880 5879 5878 5877 5875 5874 5872 5870 5868 5866 5864 5861 5859 5857 5855 5853 5851 5850 5848 5846 5845 5844 5843 5842 5842 5842 5843 5844 5845 5847 5848 5850 5852 5854 5856 5858 5860 5862
5884 5883 5882 5881 5880 5879 5878 5877 5876 5874 5872 5870 5868 5866 5864 5862 5859 5857 5855 5853 5851 5849 5847 5845 5844 5842 5841 5840 5840 5839 5840 5840 5841 5842 5844 5846 5848 5850 5852 5854 5857 5859 5861
5883 5882 5881 5880 5879 5878 5877 5876 5874 5873 5871 5869 5867 5865 5862 5860 5857 5855 5852 5850 5848 5846 5844 5843 5841 5839 5838 5837 5837 5836 5837 5837 5838 5840 5841 5843 5845 5847 5850 5852 5855 5857 5859
5882 5881 5880 5880 5878 5877 5876 5875 5873 5871 5869 5867 5865 5863 5861 5858 5856 5853 5850 5848 5846 5844 5842 5840 5838 5836 5835 5834 5833 5833 5833 5834 5835 5836 5838 5840 5842 5845 5847 5850 5853 5855 5858
5881 5880 5880 5879 5878 5877 5875 5874 5872 5870 5868 5866 5864 5862 5859 5857 5854 5851 5848 5846 5843 5841 5839 5837 5835 5833 5832 5831 5830 5830 5830 5830 5831 5833 5835 5837 5839 5842 5845 5847 5850 5853 5856
5880 5879 5878 5878 5877 5875 5874 5872 5871 5869 5867 5865 5863 5860 5857 5855 5852 5849 5846 5844 5841 5839 5836 5834 5831 5829 5828 5827 5826 5826 5826 5827 5828 5829 5831 5834 5836 5839 5842 5845 5848 5851 5854
5878 5878 5877 5876 5875 5874 5873 5871 5870 5868 5866 5864 5861 5859 5856 5853 5851 5848 5845 5842 5839 5836 5833 5831 5828 5826 5824 5823 5822 5822 5822 5823 5824 5826 5828 5830 5833 5836 5839 5843 5846 5849 5852
5877 5877 5876 5875 5874 5873 5872 5870 5869 5867 5865 5863 5860 5858 5855 5852 5850 5847 5844 5841 5838 5834 5831 5828 5825 5823 5821 5820 5819 5819 5819 5820 5821 5822 5824 5827 5830 5833 5836 5840 5843 5847 5850
5876 5876 5875 5875 5874 5872 5871 5870 5868 5866 5864 5862 5860 5857 5855 5852 5849 5846 5843 5840 5836 5833 5829 5826 5823 5821 5819 5817 5816 5815 5816 5816 5817 5819 5821 5824 5827 5830 5834 5837 5841 5844 5848
5876 5875 5875 5874 5873 5872 5871 5869 5867 5866 5863 5861 5859 5857 5854 5851 5848 5845 5842 5838 5835 5831 5827 5824 5821 5819 5816 5815 5814 5813 5813 5814 5814 5816 5818 5821 5824 5827 5831 5834 5838 5842 5845
5875 5875 5874 5873 5873 5871 5870 5869 5867 5865 5863 5861 5859 5856 5854 5851 5848 5845 5841 5837 5834 5830 5826 5823 5820 5817 5815 5813 5812 5811 5811 5811 5812 5813 5815 5818 5821 5824 5828 5832 5835 5839 5843
5874 5874 5874 5873 5872 5871 5870 5868 5867 5865 5863 5861 5858 5856 5853 5851 5847 5844 5840 5836 5833 5829 5825 5822 5819 5816 5814 5812 5810 5809 5809 5809 5810 5811 5813 5816 5818 5821 5825 5829 5833 5836 5840
5874 5874 5873 5873 5872 5871 5870 5868 5867 5865 5863 5861 5858 5856 5853 5850 5847 5844 5840 5836 5832 5828 5825 5821 5818 5815 5813 5811 5810 5808 5808 5808 5808 5810 5811 5813 5816 5819 5822 5826 5830 5833 5837
5874 5873 5873 5873 5872 5871 5870 5868 5867 5865 5863 5861 5858 5856 5853 5850 5847 5844 5840 5836 5832 5828 5825 5821 5818 5815 5812 5811 5809 5808 5807 5807 5807 5809 5810 5812 5814 5817 5820 5823 5827 5831 5834
5873 5873 5873 5873 5872 5871 5870 5868 5867 5865 5863 5861 5858 5856 5853 5850 5847 5843 5840 5836 5832 5829 5825 5822 5818 5815 5812 5811 5809 5808 5807 5807 5807 5808 5809 5811 5813 5815 5818 5821 5825 5828 5831
5873 5873 5873 5872 5872 5871 5870 5868 5867 5865 5863 5861 5859 5856 5853 5850 5847 5843 5840 5837 5833 5829 5826 5822 5819 5815 5813 5811 5810 5808 5808 5807 5807 5808 5809 5810 5812 5814 5816 5819 5822 5826 5829
5873 5873 5872 5872 5872 5871 5870 5868 5867 5865 5863 5861 5859 5856 5853 5850 5847 5844 5841 5837 5834 5830 5827 5823 5819 5816 5814 5812 5810 5809 5808 5808 5807 5808 5809 5810 5811 5813 5815 5817 5820 5823 5827